COSMOS 249 DEB *, 3790

Orbit data source: Space-Track

COSMOS 249 DEB *, 3790 is space debris in LEO originally from a launch on Sun, 20 Oct 1968 UTC launched from the Tyuratam Missile And Space Complex (TTMTR). Debris objects in space refer to the collection of defunct objects orbiting the Earth. Examples of debris include non-operational satellites, rocket bodies, and fragments generated from explosions, collisions, or faulty payload assembly.

Loading next visibility...
Identifier
3790, 1968-091AX
Orbit
LEO
Country
Flag of CISCIS
Related business
Manufacturer
Unknown
Mission
Spacecraft
Bus & Motor
Unknown
Mass
Unknown
Launch date (UTC)
1968-10-20 (57 years ago)
Launch vehicle
Unknown
Launch site
Tyuratam Missile And Space Complex (TTMTR)
Object type
Payload
Rocket body
Debris
Shape & HBR
Unknown shape, 0.1 m
Radar Cross Section
Small (<0.1 m²)

Expand to show TLE details & history
Last TLE update: 16 hours ago

TLE from 16 hours ago
0 COSMOS 249 DEB *
1 03790U 68091AX  25286.86928783  .00001983  00000-0  86798-3 0  9999
2 03790  62.9979 232.0072 0703029 293.1584  59.6881 13.39974878734462
Epoch: 2025-10-13T20:51Z
TLE epoch observation values (Epoch: 2025-10-13T20:51:46.468Z)
Latitude
-0.00003°
Longitude
-103.60231°
Altitude
874.473 km
Speed
7.532 km/s
True Right ascension
15h 28m 01s
True Declination
0° 00' 00"
Sunlit
Object was in daylight at epoch
Visualization orbit readout
Latitude
Unknown
Longitude
Unknown
Altitude
Unknown
Speed
Unknown
Apparent Right ascension
Unknown
Apparent Declination
Unknown
Sunlit
N/A
Visualization observer readout
Local Sidereal Time
07:53:44
Azimuth
Unknown
Elevation
Unknown
Doppler factor
Unknown
Orbital elements
Apogee altitude
1,634.561 km
Perigee altitude
581.932 km
Semi-major axis
7,486.384 km
Eccentricity
0.0703
Inclination
62.9979°
RAAN
232.0072°
Arg. of periapsis
293.1584°
True anomaly
66.94546°
Mean anomaly
59.6881°
Eccentric anomaly
63.28622°
Mean motion
3.3507 °/min
Orbital period
107.44 mins
BSTAR
0.00086798
Loading maneuver chart data...
Computing Atmospheric mass density...

Documentation

Showing up to 5 results
|